Pagrindinis puslapis
METAR-TAF:

METAR-TAF

Oro uostai :

New Smyrna Beach Municipal Airport

New Smyrna Beach, Florida, Jungtinės Amerikos Valstijos

platuma: 29-03-20N, ilguma: 080-56-54W, Aukštis: 3 m

Dabartinis oras

Ataskaita buvo paskelbta 1 valandą ir 1 minutes, ne 21:47 UTC
Vėjas 10 kt iš Pietryčių
Temperatūra 30°C
Drėgmė 66%
Slėgis 1015 hPa
Matomumas: 16.1 km
Išsisklaidę debesys ne aukštis 5500 ft

METAR: KEVB 302147Z 13010KT 10SM SCT055 30/23 A2997

Laikas: 18:48 (22:48 UTC)


TAF: trūkstamas

Orai ataskaitas ir orų prognozės (METAR, TAF).

turimą stotys yra geltonos ir raudonos taškus žemėlapyje.

Perkelti pele per norėdami pamatyti stoties vardą.

Tada spustelėkite, norėdami matyti oro stebėjimo ir prognozės.

Norėdami pakeisti žemėlapį: spustelėkite ant žalios mygtukų su juodo kryžiaus žemyn,; žalią mygtuką su brūkšneliu, jei norite nutolinti; arba žalių rodyklių gretimoms žemėlapius.


METAR-TAF: